CAPE
1 1 1 0 0 0 0 0 0 0 0 0 0 0 0 0 0 0 0 0 0 0 0 0 0 0 0 0 0 0 0 0 0 0 0 0 0 0 1 49 37 29 3 5 16 4 82
1 1 1 1 0 0 0 0 0 0 0 0 0 0 0 0 0 0 0 0 0 0 0 0 0 0 0 0 0 0 0 0 0 0 0 0 0 0 12 56 58 43 26 0 0 7 13
1 0 1 0 0 0 0 0 0 0 0 0 0 0 0 0 0 0 0 0 0 0 0 0 0 0 0 0 0 0 0 0 0 0 0 0 0 0 16 38 68 34 0 0 0 0 0
0 1 1 1 0 0 0 0 0 0 0 0 0 0 0 0 0 0 0 0 0 0 0 0 0 0 0 0 0 0 0 0 0 0 0 0 0 17 59 75 46 21 0 0 0 0 0
1 0 0 1 1 1 1 0 0 0 0 0 0 0 0 0 0 0 0 0 0 0 0 0 0 0 0 0 0 0 0 0 0 0 0 0 0 16 55 41 9 0 0 0 0 25 0
1 1 1 1 0 1 1 1 1 0 0 0 0 0 0 0 0 0 0 0 0 0 0 0 0 0 0 0 0 0 0 0 0 0 0 0 0 0 19 22 0 0 0 6 0 0 16
1 1 1 0 1 1 1 0 1 0 0 0 0 0 0 0 0 0 0 0 0 0 0 0 0 0 0 0 0 0 0 0 0 0 0 0 0 0 0 0 0 0 0 16 24 30 9
0 0 1 1 1 1 1 0 1 0 0 0 0 0 0 0 0 0 0 0 0 0 0 0 0 0 0 0 0 0 0 0 0 0 0 0 0 0 0 0 0 0 1 18 46 67 66
0 0 0 0 0 1 1 1 1 0 0 0 0 0 0 0 0 0 0 0 0 0 0 0 0 0 0 0 0 0 0 0 0 0 0 0 0 0 0 0 0 0 6 3 33 143 232
0 0 0 0 0 1 1 1 1 1 0 0 0 0 0 0 0 0 0 0 0 0 0 0 0 0 0 0 0 0 0 0 0 0 0 0 0 0 0 0 0 1 0 0 62 39 37
0 0 0 0 0 1 1 1 1 1 0 0 0 0 0 0 0 0 0 0 0 0 0 0 0 0 0 0 0 0 0 0 0 0 0 0 0 0 0 0 0 13 7 54 71 34 26
0 0 0 0 0 0 0 1 0 1 1 0 0 0 1 0 0 0 0 0 0 0 0 0 0 0 0 0 0 0 0 0 0 0 0 0 0 0 0 0 0 0 0 1 1 1 25
0 0 0 0 0 0 0 0 1 0 0 0 0 0 0 0 0 0 0 0 0 0 0 0 0 0 0 0 0 0 0 0 0 0 0 0 0 0 0 0 0 0 1 28 37 26 4
7 0 0 0 0 0 0 0 0 0 0 0 0 0 0 0 0 0 0 0 0 0 0 0 0 0 0 0 0 0 0 0 0 0 0 0 0 0 0 0 0 0 0 11 38 10 4
11 2 0 0 0 0 0 0 0 0 0 0 0 0 0 0 0 0 0 0 0 0 0 0 0 0 0 0 0 0 0 0 0 0 0 0 0 0 0 0 0 0 0 0 0 0 5
7 5 0 0 0 0 0 0 0 0 0 0 0 0 0 0 0 0 0 0 0 0 0 0 0 0 0 0 0 0 0 0 0 0 0 0 0 0 0 0 0 0 0 0 2 7 6
8 5 0 0 0 0 1 0 0 0 0 0 0 0 0 0 0 0 0 0 0 0 0 0 0 0 0 0 0 0 0 0 0 0 0 0 0 0 0 0 0 0 0 0 0 1 0
2 2 0 0 0 0 1 0 0 0 0 0 0 0 0 0 0 0 0 0 0 0 0 0 0 0 0 0 0 0 0 0 0 0 0 0 0 0 0 0 0 0 0 0 0 0 0
0 2 0 0 0 0 2 0 0 1 0 0 0 0 0 0 0 0 0 0 0 0 0 0 0 0 0 0 0 0 0 0 0 0 0 0 0 0 0 0 0 0 0 0 0 0 0
0 0 4 0 0 0 1 0 0 0 0 0 0 0 0 0 0 0 0 0 0 0 0 0 0 0 0 0 0 0 0 0 0 0 0 0 0 0 0 0 0 0 0 0 0 0 0
0 0 3 3 0 0 0 0 0 1 0 0 0 0 0 0 0 0 0 0 0 0 9 0 0 0 0 0 0 0 0 0 0 0 0 0 0 0 0 0 0 0 0 0 0 0 0
1 0 0 6 4 0 0 1 0 0 0 0 0 0 0 0 0 0 0 11 0 40 80 158 68 74 0 31 0 0 0 0 0 0 0 0 0 0 0 0 0 0 0 0 0 0 0
6 0 1 2 6 0 0 2 0 0 0 0 0 0 0 0 0 1 17 28 35 28 8 114 142 50 141 15 61 67 61 12 0 0 0 0 0 0 0 0 0 0 0 0 0 0 0
4 0 1 1 3 2 0 1 0 0 0 0 0 0 0 0 0 0 45 0 3 1 0 1 0 42 107 45 32 6 6 11 0 1 0 0 0 0 0 0 0 0 0 0 0 0 0
3 0 1 2 2 3 0 0 0 0 0 0 0 0 0 0 0 0 0 0 0 0 0 0 5 98 13 108 173 186 172 167 127 5 0 0 0 0 0 0 0 0 0 0 0 0 0
4 1 0 2 2 4 1 2 0 0 0 0 0 0 0 0 0 0 0 0 0 0 0 0 0 0 75 178 231 251 126 112 181 232 110 9 0 56 1 10 0 0 1 25 1 0 0
0 2 1 1 2 3 4 1 0 0 0 0 0 0 0 0 0 0 0 0 0 0 0 0 0 73 22 320 336 280 277 248 233 316 295 223 204 100 41 36 0 0 56 39 0 0 0
0 0 0 1 2 1 5 1 2 0 0 0 0 0 0 0 0 0 0 0 0 0 0 0 0 11 168 443 340 337 305 403 400 341 216 97 121 162 69 33 29 48 32 43 66 64 61
0 2 1 1 2 2 5 1 3 0 0 0 0 0 0 1 0 0 0 0 0 0 0 0 0 0 0 162 250 490 623 434 373 196 249 164 144 180 186 218 120 149 109 93 51 103 133
CIN
0 0 0 0 0 0 0 0 0 0 0 0 0 0 0 0 0 0 0 0 0 0 0 0 0 0 0 0 0 0 0 0 0 0 0 0 0 0 -2 -117 -130 -114 -49 -115 -144 -126 -104
0 0 0 0 0 0 0 0 0 0 0 0 0 0 0 0 0 0 0 0 0 0 0 0 0 0 0 0 0 0 0 0 0 0 0 0 0 0 -76 -112 -107 -147 -164 0 0 -119 -61
0 0 0 0 0 0 0 0 0 0 0 0 0 0 0 0 0 0 0 0 0 0 0 0 0 0 0 0 0 0 0 0 0 0 0 0 0 0 -159 -116 -173 -154 -10 0 0 -9 0
0 0 0 0 0 0 0 0 0 0 0 0 0 0 0 0 0 0 0 0 0 0 0 0 0 0 0 0 0 0 0 0 0 0 0 0 0 -131 -160 -189 -124 -95 0 0 0 0 0
-1 -1 0 0 0 0 0 0 0 0 0 0 0 0 0 0 0 0 0 0 0 0 0 0 0 0 0 0 0 0 0 0 0 0 0 0 0 -112 -172 -94 -72 0 0 0 0 -137 0
-1 -1 -1 -1 0 0 0 0 0 0 0 0 0 0 0 0 0 0 0 0 0 0 0 0 0 0 0 0 0 0 0 0 0 0 0 0 0 0 -93 -50 -3 0 0 -104 0 0 -155
0 0 -1 -1 0 0 0 0 0 0 0 0 0 0 0 0 0 0 0 0 0 0 0 0 0 0 0 0 0 0 0 0 0 0 0 0 0 0 0 0 0 0 0 -103 -110 -177 -184
-6 0 -4 -3 -1 -1 0 0 0 0 0 0 0 0 0 0 0 0 0 0 0 0 0 0 0 0 0 0 0 0 0 0 0 0 0 0 0 0 0 0 0 0 -30 -76 -115 -159 -158
0 0 0 0 -1 0 0 -1 0 0 0 0 0 0 0 0 0 0 0 0 0 0 0 0 0 0 0 0 0 0 0 0 0 0 0 0 0 0 0 0 0 0 -57 -56 -89 -105 -147
0 0 0 0 0 0 0 0 0 0 0 0 0 0 0 0 0 0 0 0 0 0 0 0 0 0 0 0 0 0 0 0 0 0 0 0 0 0 0 0 0 -20 0 0 -86 -88 -62
0 0 0 0 0 0 0 0 0 0 0 0 0 0 0 0 0 0 0 0 0 0 0 0 0 0 0 0 0 0 0 0 0 0 0 0 0 0 0 0 0 -62 -126 -66 -78 -92 -112
0 0 0 0 0 0 -2 0 -1 0 0 0 0 0 0 0 0 0 0 0 0 0 0 0 0 0 0 0 0 0 0 0 0 0 0 0 0 0 0 0 0 0 0 -63 -57 -123 -46
-1 0 0 0 0 -1 -1 -1 0 0 0 0 0 0 0 0 0 0 0 0 0 0 0 0 0 0 0 0 0 0 0 0 0 0 0 0 0 0 0 0 0 0 -50 -46 -38 -29 -61
-9 0 0 0 0 0 -2 -1 -1 0 0 0 0 0 0 0 0 0 0 0 0 0 0 0 0 0 0 0 0 0 0 0 0 0 0 0 0 0 0 0 0 0 -1 -17 -26 -50 -78
-5 -10 0 0 0 0 -1 -3 -2 0 0 0 0 0 0 0 0 0 0 0 0 0 0 0 0 0 0 0 0 0 0 0 0 0 0 0 0 0 0 0 0 0 0 0 -7 -1 -69
-7 -6 0 0 0 0 -4 -3 0 0 0 0 0 0 0 0 0 0 0 0 0 0 0 0 0 0 0 0 0 0 0 0 0 0 0 0 0 0 0 0 0 0 0 0 -45 -17 -17
-4 -13 0 0 0 0 -6 -6 0 0 0 0 0 0 0 0 0 0 0 0 0 0 0 0 0 0 0 0 0 0 0 0 0 0 0 0 0 0 0 0 0 0 0 0 0 -39 0
-7 -21 0 0 0 0 -5 -1 0 0 0 0 0 0 0 0 0 0 0 0 0 0 0 0 0 0 0 0 0 0 0 0 0 0 0 0 0 0 0 0 0 0 0 0 0 0 0
0 -2 0 0 0 0 -4 -2 0 0 0 0 0 0 0 0 0 0 0 0 0 0 0 0 0 0 0 0 0 0 0 0 0 0 0 0 0 0 0 0 0 0 0 0 0 0 0
-1 -19 -1 0 0 0 -3 -1 0 0 0 0 0 0 0 0 0 0 0 0 0 0 0 0 0 0 0 0 0 0 0 0 0 0 0 0 0 0 0 0 0 0 0 0 0 0 0
0 0 -18 -1 0 0 -1 -5 0 0 0 0 0 0 0 0 0 0 0 0 0 0 -145 0 0 0 0 0 0 0 0 0 0 0 0 0 0 0 0 0 0 0 0 0 0 0 0
-16 0 0 -10 -5 0 0 -6 0 0 0 0 0 0 0 0 0 0 0 -129 -2 -124 -146 -117 -130 -164 0 -154 0 0 0 0 0 0 0 0 0 0 0 0 0 0 0 0 0 0 0
-12 0 0 0 -5 0 0 -9 0 -2 0 0 0 0 0 0 0 -17 -149 -147 -145 -202 -213 -188 -180 -204 -137 -233 -274 -309 -316 -247 0 0 0 0 0 0 0 0 0 0 0 0 0 0 0
-12 -10 0 0 -5 0 0 -4 0 0 0 0 0 0 0 0 0 0 -141 0 -86 -45 0 -92 0 -240 -206 -410 -409 -171 -155 -284 0 -35 0 0 0 0 0 0 0 0 0 0 0 0 0
-5 -6 0 0 0 0 0 0 0 -2 0 0 0 0 0 0 0 0 0 0 0 0 0 0 -190 -243 -373 -259 -104 -63 -62 -90 -135 -62 0 0 0 -12 0 0 0 0 0 0 0 0 0
-5 0 0 0 0 0 0 -2 0 0 0 0 0 0 0 0 0 0 0 0 0 0 0 0 0 0 -309 -135 -72 -38 -25 -52 -52 -95 -261 -18 0 -60 -7 -30 0 0 -44 -324 -10 0 0
0 0 0 0 0 0 0 -2 0 0 0 0 0 0 0 0 0 0 0 0 0 0 0 0 0 -161 -309 -80 -30 -39 -34 -104 -17 -30 -62 -79 -82 -49 -66 -44 -7 0 -244 -384 0 0 -23
0 0 0 0 0 0 -1 -1 -8 0 0 0 0 0 0 0 0 0 0 0 0 0 0 0 0 -34 -176 -62 -63 -60 -56 -67 -45 -81 -64 -53 -42 -45 -94 -52 -32 -228 -291 -97 -137 -258 -298
0 0 0 0 0 0 0 -1 -2 -5 0 0 0 0 0 0 0 0 0 0 0 0 0 0 0 0 0 -165 -171 -139 -62 -124 -88 -18 -189 -37 -57 -21 -35 -27 -112 -212 -175 -272 -398 -321 -369
Wind_Speed
19 19 19 20 20 21 21 21 21 22 22 22 23 23 24 24 24 24 24 25 25 25 25 24 24 22 18 15 10 9 10 9 12 11 10 14 15 16 16 16 16 16 17 15 14 8 18
20 20 20 21 21 21 22 22 23 23 23 24 24 25 25 26 26 26 26 26 26 25 25 24 23 21 16 13 12 11 17 12 11 10 11 14 14 15 16 17 16 14 14 14 13 15 14
20 21 21 22 22 22 23 23 24 24 25 25 26 26 27 27 28 28 28 27 26 26 25 24 21 17 16 6 10 21 22 7 7 9 9 14 14 13 15 16 15 12 12 16 16 16 17
21 22 22 23 23 23 24 24 24 25 25 26 27 27 29 29 29 30 29 28 27 26 24 20 16 15 17 14 17 23 10 6 7 8 9 12 13 15 15 17 17 15 9 16 18 14 16
22 23 23 23 24 24 25 25 26 26 26 27 28 29 30 30 30 31 30 29 26 21 14 12 15 15 19 20 13 11 5 4 4 6 8 11 11 12 14 15 17 13 22 17 16 13 14
23 23 24 24 25 25 26 26 27 27 27 28 29 30 30 30 31 31 30 25 18 17 16 16 17 17 19 12 16 18 10 5 5 4 7 9 10 9 12 13 19 22 20 19 15 15 16
24 24 25 25 26 26 27 27 28 28 28 29 30 30 31 31 32 30 23 17 20 19 18 15 13 15 17 19 16 14 13 3 5 4 1 5 6 12 11 13 13 16 14 14 14 15 14
25 25 26 26 26 27 27 28 28 29 29 30 30 31 31 31 31 24 20 17 15 18 24 22 27 27 25 19 16 15 10 4 3 1 2 2 5 10 11 17 11 13 13 13 11 14 14
26 26 26 27 27 28 28 29 29 30 30 30 30 31 31 32 28 19 19 14 17 21 21 21 19 19 18 11 13 12 6 7 5 3 3 6 2 5 10 17 15 11 11 16 16 15 15
26 27 27 27 28 28 29 30 30 30 31 31 31 31 31 32 19 22 16 15 24 15 20 18 17 17 13 12 14 10 7 11 11 7 4 4 2 8 15 22 17 8 11 20 19 19 20
28 28 28 28 28 29 29 30 30 31 31 32 32 31 31 26 24 20 16 22 17 16 21 19 15 15 13 13 14 11 12 12 7 6 6 6 4 10 15 20 13 15 13 13 18 19 20
28 28 28 29 29 29 29 30 30 31 31 31 31 31 29 21 21 18 19 19 14 18 22 16 14 16 12 16 15 12 13 13 13 9 13 9 13 7 20 13 12 9 12 15 18 20 20
29 29 29 29 29 29 29 30 30 31 32 32 32 32 27 21 18 18 19 13 19 21 18 17 19 17 16 15 15 13 9 8 7 4 3 9 10 13 14 11 11 10 13 17 15 16 18
27 28 29 29 29 29 30 30 30 31 31 31 32 30 20 18 18 17 13 14 21 18 18 19 20 17 15 13 19 15 13 11 15 11 9 7 8 7 7 8 12 8 9 15 15 17 23
28 27 28 29 29 29 29 29 30 30 31 32 30 23 19 18 16 14 12 18 19 17 17 21 18 15 17 16 18 19 18 17 14 12 11 6 7 17 15 14 11 11 9 16 14 19 25
27 26 27 28 29 29 29 29 30 30 31 31 26 21 18 19 9 10 14 19 18 15 18 18 18 16 19 18 18 18 19 18 18 14 14 13 11 10 13 12 15 12 6 12 15 17 21
28 23 26 28 28 28 29 29 29 30 31 26 20 16 20 10 11 13 16 18 20 20 18 18 16 20 18 18 19 20 19 22 18 14 14 11 15 12 12 6 6 10 12 14 14 15 20
28 23 26 27 28 28 28 28 28 29 30 22 19 15 16 15 12 15 17 16 18 19 17 20 18 19 18 18 19 19 21 22 15 11 13 14 15 15 8 15 19 16 14 9 14 17 16
24 23 25 25 27 27 27 26 27 27 25 22 19 16 13 15 15 15 16 17 17 19 19 17 18 17 17 20 19 18 17 17 14 10 11 11 16 15 16 14 14 11 12 14 16 18 13
18 23 21 23 26 26 26 25 26 25 24 20 17 15 14 13 13 13 15 17 18 19 22 21 21 19 20 21 20 18 17 17 13 16 15 8 14 14 18 14 11 11 11 11 9 15 16
15 21 22 20 24 25 25 25 25 24 23 19 17 16 15 14 12 14 15 17 20 20 18 17 18 20 20 21 18 18 18 17 15 13 15 13 19 17 17 16 13 13 11 9 7 9 15
14 19 22 22 20 23 24 23 23 23 21 17 18 17 17 15 13 14 16 18 20 20 20 17 18 22 23 21 19 18 18 16 15 14 13 17 19 18 21 18 17 19 13 11 12 19 12
16 19 22 22 17 20 22 22 22 21 19 18 18 17 17 16 13 12 16 19 20 18 21 23 23 23 22 20 25 28 26 23 20 17 15 14 17 18 22 16 12 20 13 13 19 16 16
15 17 21 22 17 17 20 20 21 20 18 18 18 18 17 19 15 15 19 19 21 23 25 23 25 22 18 25 25 20 20 19 18 17 15 14 15 17 18 15 22 17 16 19 24 25 22
16 16 19 22 19 16 17 19 21 20 18 19 19 19 18 21 20 24 24 24 25 24 25 26 25 23 26 24 21 21 20 19 18 18 18 18 17 20 22 22 23 20 18 20 22 27 21
13 13 16 21 20 15 14 16 18 22 19 19 21 19 19 21 21 22 22 21 22 23 24 23 22 23 20 21 22 24 24 21 21 20 18 17 18 22 21 25 29 22 19 19 20 24 20
11 11 11 16 20 16 12 16 17 23 21 20 21 18 19 23 24 20 20 21 19 20 21 22 22 22 20 22 23 25 26 24 24 22 22 22 22 25 25 28 27 20 18 14 22 25 23
12 10 10 13 20 17 9 18 20 24 21 20 22 19 21 23 29 24 22 21 18 19 20 20 23 21 22 23 23 23 25 25 26 26 27 28 26 27 25 28 31 15 16 20 21 21 26
14 10 8 11 19 19 13 18 19 25 22 20 23 18 19 24 25 23 29 32 35 34 25 22 21 21 21 22 22 22 24 24 27 31 24 29 26 28 25 26 21 17 24 22 25 27 26
Wind_Direction
332 330 328 328 327 326 325 323 321 319 318 316 314 311 309 307 304 299 298 293 286 280 278 277 280 282 311 334 4 50 328 2 82 79 63 99 79 41 48 68 83 63 46 79 125 202 4
330 329 327 325 324 324 323 322 321 319 317 314 313 311 309 305 302 299 296 291 286 278 274 275 280 285 315 327 316 301 263 307 96 83 68 112 75 62 61 59 61 71 97 85 106 87 357
329 327 327 325 324 322 321 320 320 319 318 316 314 311 308 305 301 298 295 290 286 279 271 275 287 306 308 354 322 251 250 11 57 82 54 125 123 70 70 49 107 192 164 24 27 40 31
327 325 324 324 323 322 321 320 319 318 317 315 314 312 307 304 301 297 293 289 284 279 278 292 307 308 298 307 296 259 313 340 101 98 86 127 108 53 62 67 69 84 131 47 9 64 27
324 323 322 320 320 320 320 319 316 316 315 314 311 309 309 307 303 297 291 287 289 303 324 330 309 303 287 282 305 313 334 350 57 59 61 70 72 54 62 52 37 64 7 44 339 35 33
323 322 320 318 318 317 317 317 316 313 313 311 309 308 308 307 304 299 292 293 309 314 313 308 299 298 280 303 288 277 291 328 333 27 58 84 49 50 31 20 343 330 5 7 42 348 144
319 317 317 317 317 316 317 316 314 313 311 311 310 309 308 306 304 301 307 313 299 299 298 299 311 295 288 286 295 286 282 318 316 338 64 52 77 136 3 161 353 36 55 64 19 38 20
313 314 314 316 316 315 313 313 312 310 309 310 310 309 309 306 302 301 311 307 315 307 292 286 273 270 272 287 293 281 284 272 265 231 1 8 139 137 355 314 79 52 74 125 76 36 48
311 311 312 314 315 316 315 313 311 309 307 307 308 308 308 306 301 312 305 313 316 312 295 289 288 283 280 291 291 288 272 281 263 227 176 171 87 360 334 306 357 63 117 216 253 354 20
308 309 310 310 312 313 313 312 312 311 309 308 307 308 308 304 306 306 304 315 305 315 293 293 291 289 284 285 289 288 284 278 287 199 216 269 295 143 297 278 334 126 142 265 271 307 292
305 306 307 309 310 310 310 310 309 310 308 307 307 307 309 313 297 298 305 302 315 310 278 297 292 297 285 268 293 272 278 283 284 282 246 211 205 164 281 291 342 334 37 353 309 293 300
303 303 305 308 308 308 308 307 306 305 303 301 300 302 306 316 310 302 299 303 311 288 275 294 298 288 278 264 283 279 270 284 286 292 279 280 285 282 183 306 335 9 1 339 307 296 297
306 304 302 304 302 303 302 302 302 302 301 298 296 296 299 309 303 302 294 304 285 274 295 291 289 287 276 260 270 280 255 256 270 247 246 285 280 280 280 289 314 323 334 323 334 335 337
309 305 302 301 300 301 299 300 300 300 299 296 293 290 316 310 300 298 298 289 274 284 285 299 292 284 273 267 257 274 268 252 269 273 278 189 191 257 294 285 297 324 333 317 332 329 312
305 307 304 299 298 299 297 298 300 300 300 299 294 312 312 309 302 292 285 276 279 284 291 295 289 279 273 271 272 259 271 261 261 262 270 265 234 272 268 279 296 314 312 317 328 321 308
313 309 303 300 297 296 297 300 303 304 303 302 305 310 312 305 324 298 283 278 280 289 294 299 277 284 273 273 270 260 261 274 265 258 267 286 290 262 266 273 285 293 347 329 326 327 320
312 323 307 300 297 297 298 302 305 307 306 306 318 318 314 336 312 291 284 282 278 282 289 289 281 282 278 276 276 268 267 267 268 256 262 266 289 284 261 215 231 281 295 313 331 331 316
316 328 315 300 295 295 300 303 307 311 311 322 313 313 314 323 303 294 288 290 288 282 286 284 285 277 273 281 279 274 268 267 270 256 251 262 275 280 252 274 274 279 288 305 315 325 327
340 338 323 306 295 294 297 305 309 313 322 313 306 308 323 322 303 296 295 293 288 280 278 280 278 276 281 276 276 273 278 286 276 270 243 245 272 272 273 273 276 282 285 295 306 316 332
356 340 337 313 296 295 296 303 308 311 314 315 305 307 310 319 324 311 299 292 287 281 272 273 273 277 276 270 268 273 280 291 289 267 268 221 272 267 268 265 265 268 283 293 299 311 325
356 343 332 326 304 296 295 299 305 307 311 311 304 302 304 310 310 302 298 291 283 278 271 275 273 270 272 266 266 269 279 288 295 284 270 260 267 273 274 280 281 278 278 279 279 304 316
353 345 334 321 318 301 294 297 302 304 310 306 295 299 301 309 322 300 292 287 278 274 266 266 272 273 268 260 266 268 279 284 291 297 279 262 270 271 274 278 280 280 289 294 294 299 308
347 342 331 325 322 309 295 294 299 302 306 299 296 297 297 300 307 308 292 280 276 277 266 259 268 271 265 264 267 260 261 273 279 290 283 271 269 274 271 282 282 277 289 300 301 294 298
348 345 332 323 320 316 300 293 292 296 301 296 291 291 291 283 292 293 284 278 271 271 261 262 266 269 276 281 275 273 268 274 276 285 289 279 280 279 279 276 269 289 308 313 301 291 287
344 345 337 324 319 311 303 293 285 287 294 288 286 285 288 279 284 271 270 273 269 271 267 264 265 270 284 277 266 262 262 268 274 281 281 282 281 275 272 271 280 286 302 310 311 295 297
357 353 343 327 316 310 308 294 291 274 283 286 280 283 283 281 280 280 276 278 278 275 273 269 271 276 282 274 265 258 258 264 269 273 286 291 288 275 275 272 271 287 299 308 311 306 312
8 4 356 340 318 310 310 292 283 267 276 280 278 284 281 276 277 283 280 278 286 285 280 274 275 270 278 270 266 262 262 268 269 269 274 278 281 275 274 274 280 291 302 316 299 299 309
9 9 3 348 318 312 312 285 272 260 273 277 276 283 278 279 268 280 279 281 288 286 283 280 272 271 271 268 269 271 269 269 272 274 275 273 275 277 279 275 275 296 298 289 304 310 307
9 14 11 352 321 307 308 282 274 257 268 274 274 289 286 279 277 285 265 253 241 241 269 274 271 273 274 276 276 277 275 279 277 272 280 273 278 278 278 282 296 299 288 295 299 298 302